User: anonymous   Login
Location: Unspecified
(0.0000°N, 0.0000°E)
Time: 23:59:52
(UTC+02:00)
Language:

Resurs 01 Rocket - Orbit

View from above orbital plane
View from above orbital plane
View from above satellite
View from above satellite

Ground track
Ground track

The orbit data is extracted from the following two-line orbital elements,

1 23343U 94074B   18114.70268847 -.00000018 +00000-0 +49883-5 0  9993
2 23343 098.1108 159.1465 0007663 144.9029 328.3976 14.76728902262594
Epoch (UTC): 24 April 2018 16:51:52
Eccentricity: 0.0007663
inclination: 98.1108°
perigee height: 634 km
apogee height: 645 km
right ascension of ascending node: 159.1465°
argument of perigee: 144.9029°
revolutions per day: 14.76728902
mean anomaly at epoch: 328.3976°
orbit number at epoch: 26259

The dashed part of the orbit path shows where the satellite is in the earth's shadow,  

DLR